Location: Franzen
(48.6167°N, 15.3833°E)
Time: 04:27:46
(UTC+00:00)

Altair - Pass Details

Date: 11 August 2021
Orbit: 1501 x 1682 km, 47.2° (Epoch: 21 September)

Event Time Altitude Azimuth Distance (km) Brightness Sun altitude
Rises 23:24:02 0° 252° (WSW) 4,803 9.9 -26.3°
Reaches altitude 10° 23:27:10 10° 252° (WSW) 3,794 9.3 -26.2°
Maximum altitude 23:36:45 78° 168° (SSE) 1,576 7.3 -26.0°
Drops below altitude 10° 23:46:00 10° 84° (E) 3,675 9.7 -25.7°
Sets 23:49:00 0° 83° (E) 4,647 10.3 -25.6°
